Regional Weather Roundup
Issued by NWS Boston, MA

Home | Current Version | Previous Version | Text Only | Print | Product List | Glossary On
Versions: 1 2 3 4 5 6 7 8 9 10 11 12 13 14 15 16 17 18 19 20 21 22 23 24 25 26 27 28 29 30 31 32 33 34 35 36 37 38 39 40 41 42 43 44 45 46 47 48 49 50
000
ASUS41 KBOX 302110
RWRBOX

REGIONAL WEATHER ROUNDUP
NATIONAL WEATHER SERVICE TAUNTON MA
500 PM EDT TUE AUG 30 2016

NOTE:  "FAIR" INDICATES FEW OR NO CLOUDS BELOW 12,000 FEET WITH NO
SIGNIFICANT WEATHER AND/OR OBSTRUCTIONS TO VISIBILITY.

MAZALL-302200-
EASTERN MASSACHUSETTS

CITY           SKY/WX    TMP DP  RH WIND       PRES   REMARKS
BOSTON         MOSUNNY   75  58  55 E16       30.04F
BEVERLY        MOSUNNY   76  59  55 SE9       30.04F
LAWRENCE       SUNNY     82  53  36 SW9       30.05F
BEDFORD        PTSUNNY   82  50  32 W9        30.03F
BLUE HILL        N/A     80  51  36 W12       30.05F
NORWOOD        SUNNY     82  53  36 W10       30.04F
MARSHFIELD     SUNNY     73  64  73 SE9       30.04F
PLYMOUTH       SUNNY     81  52  36 SW7       30.04F
TAUNTON        SUNNY     83  55  38 SW9       30.03F
NEW BEDFORD    SUNNY     78  60  53 S14       30.04F
$$

MAZALL-302200-
CAPE COD AND THE ISLANDS

CITY           SKY/WX    TMP DP  RH WIND       PRES   REMARKS
FALMOUTH         N/A     79  59  50 SW12G17     N/A
HYANNIS        SUNNY     74  64  71 S10       30.06F
CHATHAM        SUNNY     74  59  59 SW9       30.09F
PROVINCETOWN   CLOUDY    76  62  62 SE9       30.06F
NANTUCKET      SUNNY     72  59  63 S8        30.09F
MARTHAS VNYRD  SUNNY     75  63  66 S12       30.07F
$$

MAZALL-302200-
CENTRAL AND WESTERN MASSACHUSETTS

CITY           SKY/WX    TMP DP  RH WIND       PRES   REMARKS
WORCESTER      SUNNY     77  52  41 W5        30.08F
FITCHBURG      SUNNY     82  53  36 SW8       30.06F
ORANGE         SUNNY     81  51  35 VRB5      30.05F
SPRINGFIELD    MOSUNNY   84  52  32 W10       30.03F
WESTFIELD      SUNNY     84  52  33 W8        30.04F
NORTH ADAMS    SUNNY     78  56  46 VRB6      30.06F
PITTSFIELD     SUNNY     76  56  49 W8        30.08F
$$

RIZALL-302200-
RHODE ISLAND

CITY           SKY/WX    TMP DP  RH WIND       PRES   REMARKS
PROVIDENCE     PTSUNNY   77  61  57 SE12      30.06F
NEWPORT        MOSUNNY   75  62  64 S10       30.06F
BLOCK ISLAND   SUNNY     76  63  64 SW12      30.07F
SMITHFIELD     SUNNY     79  56  45 VRB7      30.07F
WESTERLY       MOSUNNY   77  61  57 S7        30.07F
$$

CTZALL-302200-
CONNECTICUT

CITY           SKY/WX    TMP DP  RH WIND       PRES   REMARKS
BRADLEY INTL   PTSUNNY   84  54  35 W10       30.05F
HARTFORD       MOSUNNY   86  56  35 SW7       30.04F
BRIDGEPORT     MOSUNNY   81  63  54 S10       30.06F
DANBURY        MOSUNNY   80  60  50 W6        30.08F
GROTON         MOSUNNY   76  66  71 S9        30.06F
NEW HAVEN      MOSUNNY   80  62  54 SW8       30.06F
CHESTER        FAIR      81  61  50 SW8       30.07S
MERIDEN        MOSUNNY   84  54  35 NW6       30.05F
WILLIMANTIC    CLOUDY    81  57  43 CALM      30.06F
OXFORD         MOSUNNY   79  55  44 NW3       30.11F
$$

MEZ002-015-021-024-NHZ003-005-008-011-012-014-VTZ005-008-302200-
NORTHERN NEW ENGLAND

CITY           SKY/WX    TMP DP  RH WIND       PRES   REMARKS
PORTLAND ME    PTSUNNY   74  53  48 S10       30.04S
BANGOR ME      PTSUNNY   78  52  40 W7        30.00S
CONCORD NH     SUNNY     81  51  35 W7        30.04S
MANCHESTER NH  PTSUNNY   82  48  30 W10       30.02F
NASHUA NH      MOSUNNY   83  51  33 W7        30.03F
PORTSMOUTH NH  PTSUNNY   76  56  50 SE13      30.02F
JAFFREY NH     SUNNY     78  50  37 SW9       30.08F
KEENE NH       SUNNY     80  55  42 SW7       30.05F
BURLINGTON VT  CLOUDY    77  56  48 S7        30.04S
MT. WASHINGTON FOG       48  48 100 W25         N/A  VSB 1/8
$$

NYZ052-076-302200-
EASTERN NEW YORK

CITY           SKY/WX    TMP DP  RH WIND       PRES   REMARKS
ALBANY         MOSUNNY   82  54  37 W8        30.05F
NEW YORK CITY  MOSUNNY   84  60  44 S9        30.05F
$$

ANZALL-302200-
MARINE OBSERVATIONS

STATION/POSITION TIME  TEMP    WIND        PRES    VSBY  WAVE
                       AIR SEA DIR/SP/G                  HT/PER
                 (UTC) (F)     (DEG/KT/KT) (MB)    (MI)  (FT/S)
BOSTON BUOY      2050   70 70  130/ 12/ 14 1017.1F         2/12
BUZZARDS BAY     2000   71     190/ 10/ 10 1019.1F
NANTUCKET SOUND  2050   72 74  210/ 10/ 12 1018.3F         1/12
MASS BAY-STELLWA 2004   69 68  150/ 12/ 14 1017.6F  1 7/8  2/10
ISLE OF SHOALS   2000   68     150/ 18/ 18 1017.2F
S OF BLOCK IS    2055      78                N/A           5/13
$$

......................KEY.........................
  SKY/WX - SKY CONDITION/PRESENT WEATHER
  TMP    - TEMPERATURE IN FAHRENHEIT
  DWPT   - DEWPOINT IN FAHRENHEIT
  RH     - RELATIVE HUMIDITY IN PERCENT
  WIND   - DIRECTION AND SPEED IN MPH
  PRES   - MEAN SEA LEVEL PRESSURE IN INCHES OF HG
  WCI    - WIND CHILL INDEX
  VSB    - VISIBILITY IN MILES
  HX     - HEAT INDEX
  TC     - TEMPERATURE IN CELSIUS
  VRB    - VARIABLE WIND DIRECTION
  N/A    - NOT AVAILABLE



USA.gov is the U.S. government's official web portal to all federal, state and local government web resources and services.